Wind_Speed
41 42 43 43 44 44 45 45 45 46 46 45 45 45 46 47 48 48 48 47 47 47 47 48 48 48 47 47 46 46 45 44 44 45 45 45 47 48 50 51 52 53 55 56 57 59 60 62 63 64 64 64 63 64 66 67 67 67 68 70 72 75 77 79 81 82 83 83 84 85 86 87 87 87 87 87 88 88 87 87 87 87 85 84 83
43 43 43 43 44 45 46 46 47 47 47 46 46 46 47 47 48 49 49 48 48 49 49 49 49 48 47 46 45 45 45 44 44 44 44 45 47 48 50 51 52 54 55 56 58 60 62 63 64 64 64 63 64 65 67 68 68 69 70 72 75 77 80 82 83 84 85 86 86 87 88 88 89 89 88 88 88 88 87 86 85 84 83 83 83
44 43 43 43 43 44 44 45 46 47 47 46 46 47 47 48 49 50 50 50 50 50 50 50 49 47 46 45 44 44 44 44 44 44 44 45 47 48 50 51 52 53 55 57 60 61 62 64 64 64 64 64 65 68 69 70 70 70 72 75 77 80 82 84 85 86 87 87 88 88 88 89 89 89 89 88 88 88 87 86 84 82 82 83 83
45 45 45 45 44 43 43 44 45 46 46 47 47 48 48 49 50 50 50 50 50 51 50 49 48 46 45 44 43 43 43 44 44 44 44 45 47 48 49 51 52 54 57 59 61 62 63 64 65 65 66 66 67 70 71 71 72 73 75 78 80 82 84 85 86 87 87 87 88 89 89 89 88 88 88 88 88 87 85 84 83 82 82 82 81
45 46 47 47 45 44 44 44 45 46 47 47 47 48 49 49 49 48 48 48 48 48 48 47 46 45 45 44 43 44 44 44 44 45 45 45 47 48 50 52 54 57 59 61 63 64 64 66 67 69 69 69 70 72 73 73 74 76 78 80 82 83 85 86 87 87 88 88 88 89 89 88 87 87 88 88 87 85 84 83 82 81 80 80 80
47 47 48 48 47 46 45 44 44 44 45 45 46 47 47 46 46 45 45 45 46 46 45 45 45 45 45 44 44 45 44 44 45 45 45 45 47 50 51 53 55 57 59 62 64 65 65 66 68 70 70 70 72 73 73 73 73 76 78 79 81 83 85 86 87 88 88 89 89 89 88 88 87 86 86 86 84 83 82 82 81 80 79 79 79
50 50 49 48 48 47 46 44 43 43 42 43 43 44 44 44 43 43 43 43 43 44 44 44 44 44 44 44 45 45 46 46 45 44 44 45 48 50 51 53 54 56 58 61 62 63 63 64 65 66 67 68 69 70 69 69 71 74 77 79 81 83 85 86 87 88 89 89 89 88 87 87 86 85 83 82 82 81 81 81 80 79 79 79 79
53 52 51 49 48 48 47 45 43 41 40 40 41 42 42 43 43 42 42 42 42 42 43 43 43 43 44 44 44 45 46 46 45 45 46 47 48 49 51 53 55 56 58 60 61 62 64 65 64 65 66 67 67 68 68 69 72 76 78 80 82 84 86 87 88 89 89 88 88 87 86 86 84 82 81 81 81 80 80 80 79 78 79 80 81
53 52 50 48 47 47 47 46 43 41 40 40 40 41 42 42 42 42 42 42 42 42 42 42 42 42 43 43 44 45 45 46 46 46 47 49 49 50 52 54 56 57 58 60 61 61 62 63 63 64 66 67 68 69 71 73 77 79 80 82 84 85 86 87 88 88 88 87 86 86 85 84 81 80 79 80 79 79 79 80 79 80 81 81 82
50 50 49 48 47 47 46 45 44 42 41 41 41 41 42 42 42 42 42 43 43 43 42 42 41 41 41 42 43 44 45 46 45 46 48 51 52 52 53 54 56 58 59 60 60 59 60 60 60 63 65 66 68 70 73 77 79 80 81 83 85 85 86 87 87 87 86 86 85 84 83 81 79 78 79 78 78 78 79 80 81 81 82 83 82
49 48 48 48 47 46 45 44 43 43 43 43 43 42 43 42 42 42 42 43 43 43 42 42 41 41 41 42 43 44 45 45 45 47 50 51 53 53 54 55 58 59 60 60 60 60 60 60 61 65 67 69 70 70 73 76 78 80 82 83 84 85 86 86 86 85 85 84 82 81 81 79 77 77 77 76 77 79 80 81 82 82 83 84 84
48 48 48 48 47 46 45 44 43 44 44 44 44 44 44 43 42 43 43 43 43 42 41 41 41 41 41 42 43 44 44 45 46 49 50 51 53 54 55 57 59 60 61 61 62 61 61 63 66 69 70 70 69 70 72 75 78 80 81 83 84 85 85 84 84 83 82 81 80 79 79 77 76 76 76 77 79 80 81 82 82 82 83 85 84
49 49 48 48 48 47 46 44 44 44 45 45 45 45 44 43 43 44 43 43 42 42 41 41 42 42 42 43 44 44 44 46 47 49 50 51 53 54 56 58 59 61 62 63 63 63 64 67 69 69 68 67 67 69 72 75 77 80 83 84 84 84 83 83 82 80 78 78 79 78 77 76 76 75 76 79 80 81 81 82 83 84 85 85 85
50 50 49 49 48 48 46 45 45 45 45 45 45 45 45 44 44 44 43 43 42 42 42 43 43 43 43 44 45 45 46 47 49 50 51 52 54 55 57 59 60 61 62 63 64 66 66 67 67 66 66 65 66 69 73 77 81 84 85 84 82 81 81 80 77 75 75 78 79 77 75 75 76 76 77 79 80 81 82 82 83 85 86 86 86
51 51 50 50 49 48 47 46 45 45 46 46 46 46 46 45 45 44 43 43 42 43 43 43 44 44 44 45 46 46 48 48 50 52 54 55 56 57 58 60 60 61 63 65 66 67 66 66 66 65 65 66 70 76 80 83 84 84 82 81 80 80 79 75 73 73 76 77 77 75 74 75 76 77 78 79 80 81 82 83 85 86 88 89 90
52 52 51 51 50 48 46 45 45 46 46 47 47 47 47 46 45 45 44 44 44 44 44 44 45 45 45 46 47 49 51 51 52 55 57 58 58 59 60 61 62 64 66 67 66 64 64 66 67 68 71 75 80 82 83 83 82 82 82 81 80 77 73 71 72 74 76 75 75 75 75 75 77 78 78 78 80 82 84 86 87 88 91 92 93
54 53 52 51 50 48 46 46 46 47 47 48 48 48 48 47 46 46 46 45 45 45 45 46 46 46 47 48 50 51 53 55 56 57 59 60 60 61 63 64 66 66 65 63 63 64 67 70 73 76 78 80 80 81 82 83 84 84 82 79 76 73 71 71 73 74 74 75 75 76 76 76 77 78 79 80 82 85 88 90 90 92 94 96 95
54 53 52 51 50 48 47 46 47 48 49 50 50 50 50 49 48 48 47 47 47 47 47 47 47 48 49 50 52 54 56 57 59 60 62 63 64 65 66 67 67 66 64 64 66 70 72 74 76 77 77 78 80 82 83 83 82 80 77 74 73 72 71 72 73 73 74 75 75 75 76 76 77 78 79 81 83 87 91 93 94 96 98 98 97
54 53 51 50 49 48 48 48 48 49 51 52 52 52 51 51 50 48 48 48 48 48 48 48 49 51 51 53 54 56 58 59 61 62 64 66 66 67 67 68 67 67 67 69 71 73 73 74 75 76 78 79 79 79 79 78 76 74 74 73 72 71 72 74 74 74 75 75 75 76 76 76 78 79 81 83 85 87 90 93 95 97 99 100 99
53 52 52 51 51 51 51 51 51 52 53 54 54 54 53 52 50 49 48 49 49 49 50 50 52 53 54 55 56 58 60 61 62 64 65 66 67 68 69 69 69 69 70 71 72 73 73 74 75 75 76 75 74 74 74 74 73 73 73 73 72 72 74 75 75 76 76 76 77 77 78 79 80 82 84 85 87 89 91 93 95 97 99 100 100
54 54 55 55 55 55 54 54 55 55 56 56 56 55 54 53 51 50 50 50 50 51 52 53 54 56 57 58 58 59 61 62 63 65 66 67 68 69 70 70 70 70 71 72 72 72 72 72 71 71 71 71 71 72 72 73 73 73 73 73 73 74 76 76 76 76 76 76 77 79 80 81 83 84 86 87 88 90 91 93 94 96 98 98 97
57 58 58 59 59 59 58 58 57 57 57 57 57 57 56 54 53 52 51 52 52 53 54 55 56 57 58 59 60 61 62 63 64 66 67 68 69 69 69 69 69 70 70 70 69 68 67 67 68 69 70 71 71 72 72 73 73 73 73 74 74 75 75 75 74 75 76 78 79 81 82 84 86 87 88 88 89 91 92 94 95 95 95 94 93
61 61 62 62 62 61 61 60 59 59 59 59 58 58 57 55 54 53 53 54 54 55 56 56 57 58 59 60 61 62 63 64 65 66 67 67 67 67 67 68 68 68 67 66 65 65 66 68 69 70 71 72 72 72 73 73 73 73 73 73 73 72 73 74 75 76 78 80 82 83 85 86 88 89 90 90 91 92 93 94 94 94 93 91 89
64 64 64 64 64 63 62 61 61 61 61 60 60 59 58 57 56 55 55 55 56 57 58 58 58 59 59 60 61 61 62 63 64 65 66 66 66 67 67 67 66 65 64 64 65 66 67 69 70 71 71 71 72 72 72 73 73 72 71 71 71 72 73 75 77 78 80 82 84 85 87 88 89 90 91 92 93 93 94 94 93 91 89 87 85
66 66 66 66 66 65 64 63 63 62 62 62 62 61 60 59 58 57 56 57 58 58 58 58 58 58 58 59 59 60 62 63 64 65 66 66 66 66 66 66 65 65 64 64 65 66 67 68 69 69 70 70 71 71 71 71 70 69 69 70 71 73 74 76 78 80 81 83 85 86 88 89 90 92 94 95 95 95 94 93 91 88 86 84 84
67 67 67 67 67 66 66 65 65 64 64 65 64 64 62 60 58 57 58 58 58 57 57 56 56 57 57 58 59 61 62 63 65 66 66 67 67 67 67 66 66 65 64 64 65 65 66 66 67 68 69 69 69 69 69 68 68 68 69 70 72 73 75 77 78 80 82 84 86 88 90 91 93 94 95 96 96 95 94 91 88 85 84 83 83
67 67 67 68 68 68 68 67 67 67 67 67 66 65 63 60 58 57 57 57 55 55 54 55 55 56 57 59 60 61 63 64 65 67 67 68 68 67 67 66 65 64 64 63 63 64 64 65 66 67 68 67 67 67 66 67 67 68 69 71 73 74 76 77 79 81 83 86 88 90 92 94 95 96 96 96 95 93 91 88 86 84 83 83 83
69 69 69 70 70 70 70 70 69 68 67 65 64 62 60 58 56 56 55 53 53 53 54 55 56 57 58 60 61 62 64 65 66 67 68 67 67 66 65 64 64 63 63 63 63 64 65 66 66 66 66 65 65 65 66 66 67 68 69 71 72 74 75 77 79 81 83 86 89 91 93 95 95 96 96 94 92 90 88 86 85 85 84 84 82
69 70 70 71 72 72 71 70 68 66 64 61 59 57 55 53 52 52 51 51 53 54 56 57 58 59 60 61 63 64 65 66 67 67 67 66 65 64 64 64 63 64 64 64 64 64 64 64 64 63 63 63 64 64 65 66 67 68 69 70 71 73 75 77 79 81 84 87 90 92 94 95 95 95 94 92 89 87 86 85 85 85 84 82 81
69 70 71 71 71 69 68 65 63 60 58 55 53 51 50 49 49 50 51 54 55 56 57 58 59 61 62 63 64 65 66 66 66 66 65 65 64 64 64 64 64 64 64 64 63 63 62 61 61 61 62 62 63 64 64 65 66 67 68 69 71 73 75 78 80 83 86 89 91 93 95 95 95 94 92 89 87 85 85 85 84 84 82 80 78
69 68 68 67 65 63 61 58 56 53 51 49 48 47 47 48 49 52 54 56 57 58 59 60 62 63 64 65 65 66 66 66 65 65 65 65 65 65 65 64 64 63 62 62 61 60 60 60 60 60 61 62 62 63 63 64 65 66 67 69 72 74 77 79 82 85 88 90 93 94 95 95 94 91 89 87 85 85 85 85 83 82 80 78 75
65 64 62 60 58 55 52 50 48 47 46 46 47 47 48 50 53 55 56 58 59 60 61 62 63 64 64 65 65 65 65 65 65 65 65 65 65 64 63 63 62 61 60 60 59 59 59 59 59 60 60 61 62 62 63 64 65 66 68 70 73 75 78 81 83 86 89 91 93 94 94 94 92 89 87 86 85 85 84 83 82 79 76 74 71
58 56 54 51 49 47 46 45 45 45 46 46 47 48 50 53 55 57 58 60 61 62 63 63 64 64 65 65 65 64 64 64 64 65 65 64 63 62 61 60 59 59 59 58 58 58 58 59 59 60 60 61 62 63 64 65 66 68 70 72 74 77 79 82 85 87 90 92 93 94 93 92 89 86 85 85 85 84 83 81 79 76 73 70 67
49 47 46 44 44 44 44 44 45 45 46 47 49 51 53 55 57 59 61 62 62 63 63 64 64 64 64 63 63 63 64 64 64 64 63 62 60 59 59 58 58 58 58 58 58 58 59 59 60 60 61 62 63 64 65 66 68 69 71 73 76 78 81 83 86 88 90 92 93 93 92 89 87 85 84 84 83 82 80 78 75 72 69 66 64
44 43 43 43 44 44 44 44 45 46 47 49 51 53 55 57 59 61 62 62 63 63 63 63 63 63 63 63 63 64 64 63 62 61 60 59 58 58 58 58 58 57 57 58 58 59 60 60 60 61 62 63 64 65 66 68 69 71 73 75 77 79 82 84 86 88 90 91 92 92 91 88 85 84 84 83 81 79 77 74 71 68 66 63 61
44 44 44 44 44 44 44 45 46 48 50 52 54 55 57 58 60 61 62 62 62 62 62 62 62 63 63 63 63 63 62 61 60 59 58 58 58 58 58 58 58 58 58 58 59 60 60 61 61 61 62 64 65 66 68 69 70 72 74 76 78 80 82 85 87 89 90 91 92 91 89 86 84 84 83 81 79 76 73 70 68 65 63 61 60
45 45 44 43 44 44 46 47 49 51 52 54 55 56 58 59 60 61 61 61 61 61 62 62 63 63 63 62 61 60 60 59 59 59 58 58 58 58 58 58 58 58 59 60 60 61 62 62 62 63 64 66 67 68 69 70 71 73 76 78 79 81 83 85 87 89 90 91 91 90 87 85 84 83 81 79 76 73 70 67 64 62 61 60 59
43 43 43 44 46 47 49 50 51 52 54 55 56 57 58 58 59 60 60 61 61 62 62 62 61 61 60 60 60 59 59 59 59 59 59 59 59 58 58 58 59 59 60 61 62 62 63 63 64 65 66 67 68 69 70 71 72 75 77 79 80 82 84 85 87 88 89 90 91 89 86 84 83 82 79 76 72 69 67 64 61 60 59 58 57
44 45 46 48 49 50 51 52 53 54 54 55 56 57 58 58 59 59 60 60 60 60 59 59 59 59 60 60 60 60 61 61 61 60 60 59 59 59 59 59 60 61 62 62 63 64 64 65 66 67 68 69 69 70 71 72 74 76 78 80 81 83 84 85 87 88 89 90 90 88 85 83 82 79 76 73 69 66 63 61 59 58 57 55 54
47 48 49 50 50 51 52 53 54 55 55 56 57 57 57 57 57 57 57 57 57 58 58 59 59 60 61 61 61 62 62 62 61 61 60 60 60 60 60 61 61 62 63 64 64 65 66 67 68 68 69 70 71 71 72 74 75 77 79 80 82 83 84 85 86 87 89 90 89 87 84 82 79 76 73 70 66 63 60 58 57 56 54 53 52
50 50 51 52 52 53 54 54 55 55 56 55 55 54 54 53 53 53 54 55 56 57 58 60 61 62 62 63 62 62 62 62 61 61 61 61 61 61 61 62 63 64 64 65 66 67 68 69 69 70 71 71 72 73 74 75 77 78 80 81 82 83 84 85 86 87 88 89 88 85 82 80 77 73 69 66 63 60 58 56 55 53 52 51 50
52 52 52 52 53 53 54 55 55 54 52 51 51 50 50 50 51 51 53 54 55 57 59 60 62 63 64 64 63 62 62 62 62 61 61 61 61 62 62 63 64 65 66 67 68 69 69 70 70 71 72 73 74 75 76 77 78 79 81 82 82 83 84 84 85 86 88 88 87 84 81 77 73 69 66 63 60 58 56 54 53 52 51 50 50
51 51 51 52 53 54 54 53 52 50 49 48 48 48 48 48 49 50 52 53 55 57 60 62 63 65 65 64 64 63 63 63 62 62 62 62 62 63 64 64 65 66 67 69 70 70 71 71 72 73 74 74 75 76 77 78 79 80 81 82 83 83 84 84 85 86 87 86 85 82 78 75 70 66 63 60 57 55 54 52 51 50 49 49 49
50 51 52 53 54 54 53 51 49 48 47 47 46 47 47 48 49 51 53 54 56 59 61 63 65 66 66 65 64 64 63 63 62 62 62 63 63 64 65 65 66 67 69 70 71 72 72 72 73 74 75 75 76 77 78 79 80 81 82 82 83 83 84 84 84 85 85 84 82 79 76 71 67 63 60 57 55 53 52 51 49 48 48 48 48
52 53 53 54 53 52 50 48 47 47 46 46 47 48 49 50 52 53 55 56 58 60 62 64 65 66 66 65 64 64 63 63 63 63 63 64 64 65 66 66 67 69 71 72 72 72 72 73 74 75 76 76 77 78 78 80 81 82 83 83 83 83 83 83 83 83 83 81 78 76 72 68 64 60 57 55 53 51 50 49 48 47 46 47 48
53 53 52 51 50 48 47 47 46 47 47 48 49 50 52 53 54 55 57 59 60 62 63 65 65 65 65 64 64 63 63 63 63 63 64 65 65 66 66 67 69 71 72 72 72 73 73 74 75 76 77 77 78 79 80 81 82 83 84 84 83 83 83 83 82 81 80 78 75 72 69 65 61 58 55 53 51 49 49 48 47 46 45 45 46
52 51 49 48 47 46 46 47 47 48 50 51 52 53 54 55 56 57 59 60 62 63 64 65 65 64 64 63 64 64 64 64 64 64 65 65 66 67 68 69 71 73 73 73 73 74 75 76 77 77 78 79 79 80 81 83 84 84 85 84 84 83 83 82 81 79 77 74 71 68 65 62 59 56 53 51 49 48 47 47 46 45 44 44 44
50 49 47 47 47 47 48 49 50 51 52 53 54 55 56 57 58 59 60 61 62 63 64 64 64 63 63 63 64 64 64 64 64 65 65 66 67 68 70 72 73 74 74 75 76 77 77 78 78 79 79 80 81 82 83 85 85 85 85 85 84 83 82 80 79 76 73 70 68 65 62 59 56 53 51 50 48 47 46 46 45 44 43 43 43
47 47 47 47 48 49 50 52 53 54 55 56 56 57 58 58 59 60 61 62 62 63 63 63 63 63 63 64 64 64 64 64 65 65 67 68 70 71 73 74 75 75 76 77 78 78 79 79 80 80 81 82 83 84 86 86 87 86 86 85 84 83 81 79 76 73 70 66 64 61 59 56 54 51 49 48 46 45 45 44 43 43 42 41 41
46 47 48 49 50 52 53 54 55 56 57 57 58 58 59 59 60 60 61 62 62 62 63 63 63 63 64 64 64 64 65 66 66 68 69 71 72 74 75 76 76 77 77 78 79 80 80 81 81 82 83 84 86 87 87 88 88 87 87 86 84 82 79 76 73 70 66 63 61 58 56 54 52 50 48 46 45 44 43 43 42 41 41 40 39
47 48 50 51 52 54 55 56 56 57 57 58 58 59 60 60 61 61 61 61 62 62 62 63 63 64 64 64 65 65 66 67 69 70 72 74 75 76 77 77 77 78 78 79 80 81 82 83 83 84 85 87 88 88 89 89 89 88 87 86 83 80 77 74 70 66 63 60 58 55 53 52 50 48 46 45 43 42 42 42 41 40 39 38 37
Wind_Direction
280 280 280 280 279 278 278 278 279 279 279 279 279 280 280 281 281 281 281 282 282 283 284 285 284 284 283 282 281 281 281 281 282 283 284 285 285 285 286 286 287 287 288 289 289 289 289 290 291 292 293 294 295 295 295 295 296 296 297 297 297 297 297 298 298 299 300 301 302 302 302 302 303 303 304 305 305 306 307 307 307 307 307 307 307
279 280 280 280 279 278 277 277 277 278 278 279 280 280 280 280 281 281 282 282 283 284 284 284 284 283 282 282 281 280 280 280 281 282 282 283 284 284 285 287 288 288 289 290 290 290 291 292 293 294 295 295 295 295 294 294 295 296 297 297 297 297 297 298 298 299 300 301 302 302 302 302 302 303 304 304 305 306 306 306 306 306 306 306 307
279 280 281 280 280 278 277 276 276 277 278 279 279 279 279 279 280 280 281 281 282 283 283 283 283 282 282 281 279 278 278 278 279 280 281 282 283 285 286 288 289 290 291 292 292 293 294 295 295 295 295 295 295 294 294 295 296 296 297 296 296 297 297 297 298 299 300 301 301 301 301 301 302 303 304 304 305 305 305 305 305 305 305 306 306
280 281 282 282 281 279 277 276 276 277 278 278 278 278 278 278 279 279 280 281 282 282 283 283 282 282 281 280 278 277 277 277 278 280 281 282 284 286 288 289 291 293 293 294 294 294 295 295 295 294 293 293 294 294 295 295 296 296 296 296 296 296 297 297 298 299 299 300 300 300 300 301 302 303 304 304 304 304 304 304 304 304 305 305 305
280 282 282 282 281 279 277 277 277 277 278 278 278 278 278 278 279 279 280 281 281 282 282 282 282 282 282 281 280 280 280 280 281 281 282 284 286 288 290 292 293 294 294 294 294 294 294 295 294 293 292 293 294 295 296 296 296 297 296 296 297 297 297 297 297 298 298 298 298 299 300 301 302 303 303 303 303 303 303 303 303 303 304 304 305
280 281 281 282 281 280 278 278 278 278 278 277 277 277 277 278 278 279 280 280 280 281 282 282 282 283 283 284 284 284 284 284 284 284 285 286 287 289 291 292 293 293 294 295 294 294 295 296 295 294 294 295 296 297 297 298 298 299 298 298 298 297 297 297 296 297 297 297 298 299 300 301 302 302 302 301 301 301 301 301 302 303 303 304 305
281 281 281 281 281 280 279 279 278 278 276 276 275 275 276 277 278 278 278 278 279 280 280 280 281 282 283 285 285 286 287 287 287 287 287 286 286 287 289 291 292 293 294 295 295 295 296 295 295 295 296 296 297 297 297 298 299 299 298 297 296 295 295 295 296 296 297 297 299 299 300 301 301 301 300 300 300 300 300 300 302 302 302 303 305
280 280 279 279 278 278 278 278 278 277 275 274 273 274 275 276 276 276 277 277 277 277 277 278 279 281 282 283 284 285 286 288 289 289 287 286 286 288 290 291 292 293 294 295 296 297 297 296 296 296 295 295 296 297 297 297 297 296 295 294 293 294 295 295 296 296 297 298 299 299 299 300 300 300 299 299 299 299 299 300 301 302 302 303 305
279 278 277 276 274 274 275 277 278 277 275 273 272 272 272 273 273 274 275 275 276 275 276 277 278 280 282 283 284 285 286 287 289 289 288 287 287 288 289 290 292 293 295 296 297 298 299 299 298 298 297 297 297 297 297 296 295 293 293 293 294 294 295 295 295 296 297 298 298 298 299 299 300 299 298 298 298 298 299 300 301 302 303 304 306
277 276 275 274 272 272 274 276 277 277 275 273 272 272 271 271 271 272 274 274 275 276 276 277 279 281 283 285 287 288 288 289 290 289 288 288 288 289 290 291 291 292 293 295 296 297 299 300 299 298 298 298 298 299 298 295 293 293 293 293 293 293 294 295 296 297 297 298 298 298 298 299 298 297 297 297 298 298 300 301 302 303 304 305 307
276 274 273 273 272 273 274 276 276 276 275 274 273 273 272 272 273 274 274 274 274 275 276 278 281 283 286 287 288 289 290 290 289 287 287 288 288 290 291 290 290 290 291 293 294 295 297 298 298 297 297 298 298 298 296 294 292 292 291 291 292 294 295 296 296 297 297 297 297 297 298 297 297 296 297 298 299 300 301 303 304 305 306 308 310
276 275 274 273 273 274 275 275 275 274 273 273 273 273 273 273 274 275 274 274 274 274 276 279 282 284 286 287 288 289 290 290 288 287 287 287 287 288 289 289 290 290 291 292 293 294 296 295 295 296 297 297 296 294 293 291 289 288 290 292 295 295 296 296 296 295 295 296 296 297 296 296 296 298 299 300 301 302 303 305 306 307 308 310 311
277 276 276 275 275 276 276 276 274 272 271 271 271 272 273 273 274 274 274 273 274 275 277 279 281 283 285 286 287 288 289 289 288 287 286 286 285 286 287 287 288 289 290 291 293 294 294 294 295 296 296 294 292 290 288 286 287 290 293 295 295 295 295 295 295 295 295 295 295 295 296 296 298 300 301 302 303 304 306 307 308 309 310 311 311
277 277 277 276 276 276 276 275 273 271 270 270 271 271 272 272 273 273 273 273 274 276 278 279 281 282 284 285 286 287 287 287 287 285 284 284 284 284 285 286 287 289 291 292 293 294 295 295 295 293 290 288 287 285 285 288 291 293 294 294 294 294 294 294 294 293 293 294 294 295 297 299 300 302 303 304 306 307 308 309 310 310 310 310 311
278 278 277 277 276 276 276 274 272 271 271 271 271 271 272 272 272 272 272 273 275 276 278 279 281 282 284 285 286 287 287 286 286 285 284 284 285 286 287 288 289 290 292 293 294 296 296 294 291 288 286 285 285 287 289 291 292 291 292 293 293 294 293 293 292 292 292 293 295 297 299 301 303 304 306 307 309 309 310 310 310 310 309 309 310
279 278 277 277 276 275 274 273 272 271 271 271 271 272 272 272 272 271 272 274 275 276 278 279 281 282 284 286 286 287 287 286 286 285 285 285 286 287 288 289 291 292 293 294 295 294 291 288 286 286 286 287 288 289 290 290 290 291 292 293 292 292 292 291 290 291 293 295 298 300 302 304 306 308 309 310 310 310 309 310 310 310 309 309 310
279 278 277 276 276 275 274 272 272 271 271 271 272 272 272 272 271 271 273 274 275 276 278 280 281 282 284 285 286 286 286 286 287 286 286 287 288 289 290 291 292 294 294 293 290 288 286 286 286 286 287 288 288 288 288 289 291 292 291 290 290 290 290 290 291 294 296 298 301 303 305 307 309 311 311 311 311 310 309 310 310 309 308 308 309
279 278 277 277 277 276 275 274 273 272 272 272 272 272 272 272 271 272 273 273 275 276 278 279 281 282 283 283 284 285 285 286 286 287 287 288 289 290 291 293 294 294 292 289 287 287 286 286 286 286 287 287 287 288 290 290 290 289 288 288 288 289 290 292 294 297 299 302 305 307 309 311 311 311 311 311 310 310 309 310 310 309 308 308 308
280 279 279 279 278 277 276 275 274 273 272 272 272 272 271 271 271 272 272 273 275 276 277 279 280 281 281 282 283 283 284 285 286 287 287 288 289 291 292 293 293 293 291 289 288 287 286 286 286 287 287 288 289 289 288 287 287 286 286 287 289 290 292 295 297 300 303 306 309 310 311 311 311 311 310 310 310 309 309 309 309 308 308 308 307
281 281 281 281 280 278 278 277 275 274 273 273 272 271 271 271 271 272 273 274 275 276 278 279 280 280 281 281 282 283 284 285 286 287 288 289 291 292 293 293 292 291 290 289 288 287 287 287 289 289 289 288 287 286 285 285 286 287 288 290 292 294 296 299 302 305 307 309 310 310 310 310 310 309 309 310 310 309 308 308 308 308 307 307 307
281 282 282 282 281 280 279 278 276 275 273 272 271 271 271 271 271 272 273 275 276 277 278 279 279 280 281 282 283 284 285 286 287 288 289 290 291 292 292 292 291 290 289 289 288 289 290 290 289 287 286 284 284 284 285 286 288 290 292 295 297 299 301 304 306 308 309 309 309 308 308 308 308 309 309 310 309 308 308 307 307 307 306 306 305
280 281 281 280 280 279 278 277 275 274 272 271 271 271 271 271 271 272 274 275 276 278 278 279 280 281 282 284 285 286 287 288 289 290 291 291 291 291 290 290 289 289 289 290 290 290 289 288 286 284 283 284 285 286 288 290 292 294 297 299 302 304 305 306 307 307 307 307 307 307 308 308 309 309 310 310 309 308 308 307 307 306 306 305 305
279 279 278 278 278 277 276 275 274 272 272 271 270 270 270 270 270 272 274 275 277 278 279 280 281 283 284 286 287 288 289 290 290 290 290 290 290 290 290 290 290 290 291 290 289 287 285 284 283 283 283 285 287 289 291 293 296 298 300 303 305 306 306 307 307 307 307 307 307 308 308 309 309 310 310 310 309 309 308 307 307 306 306 305 304
278 278 277 276 276 275 274 273 272 271 271 270 269 269 269 268 269 271 273 276 278 280 281 282 284 285 287 288 289 290 290 290 290 290 290 290 290 290 290 290 290 290 289 287 285 284 283 283 283 284 286 287 289 291 293 296 298 301 303 304 305 306 306 306 307 307 308 308 309 309 310 310 311 311 311 310 310 309 308 308 307 306 305 305 304
278 278 277 276 274 273 272 271 270 269 269 268 268 268 267 267 269 271 274 278 280 281 283 284 286 287 288 289 289 290 290 290 290 290 290 290 290 290 290 289 289 288 287 286 285 285 284 285 286 287 288 290 292 294 296 299 301 302 303 304 305 306 306 307 308 309 309 310 310 311 311 312 312 312 311 311 310 310 309 308 308 307 305 304 303
277 277 276 275 273 271 270 269 269 268 268 267 267 267 267 267 268 272 277 280 282 283 285 286 288 288 289 289 289 289 289 289 289 289 289 289 289 290 290 289 289 289 288 288 287 287 287 287 288 289 291 293 295 297 298 300 301 302 303 304 305 306 307 308 309 310 310 311 311 312 312 313 313 312 312 312 311 310 310 309 308 306 305 304 304
276 276 275 274 273 271 270 269 268 268 267 267 266 266 267 267 270 275 279 282 283 285 286 288 289 289 289 289 289 289 289 289 289 289 290 290 290 290 290 290 290 290 289 289 289 289 289 290 291 293 294 296 297 298 299 300 301 303 304 305 306 308 309 310 311 312 312 313 313 313 314 313 313 313 313 312 312 311 310 309 308 307 306 305 305
275 275 274 273 272 271 270 269 268 267 266 265 265 266 266 269 273 278 281 282 285 287 288 289 290 290 290 290 290 290 289 289 289 290 290 291 291 291 290 290 290 290 290 290 290 291 292 293 294 295 296 297 298 299 300 301 302 304 305 307 309 310 311 312 312 312 313 313 313 313 314 313 313 314 313 313 312 311 310 309 308 308 307 306 306
274 274 273 272 271 269 268 266 265 264 264 265 266 267 270 273 277 280 282 285 288 290 291 291 291 291 290 290 289 289 289 289 289 290 290 290 290 290 290 290 290 291 291 292 293 294 294 295 296 297 297 298 299 300 301 303 305 306 308 309 311 311 312 312 312 312 312 313 313 314 314 314 315 315 314 313 312 311 310 310 309 309 308 307 307
271 270 269 267 266 265 264 263 263 264 266 268 270 273 275 278 280 283 287 290 291 292 292 291 290 289 289 288 288 289 289 289 290 290 290 290 291 291 291 291 292 292 293 294 295 295 296 296 297 297 298 299 301 302 304 305 307 308 309 310 311 312 312 312 312 313 313 314 315 315 315 316 316 315 314 313 312 311 311 311 310 310 309 308 307
265 264 263 262 262 262 262 264 266 268 270 273 275 277 279 282 285 289 291 291 291 290 289 289 288 288 288 288 288 289 289 289 290 290 290 291 291 291 292 293 293 294 295 296 296 296 296 297 298 299 300 301 303 304 305 306 307 308 309 310 311 312 312 313 313 314 315 315 316 316 317 317 317 316 315 314 313 313 312 312 311 311 310 309 308
260 260 260 260 261 263 265 268 270 272 275 277 278 279 283 287 290 291 290 290 289 288 287 287 287 287 288 288 289 289 290 290 290 291 291 292 292 293 294 295 295 296 296 296 296 297 297 298 299 300 301 302 303 304 305 305 306 307 308 310 311 312 313 314 314 315 316 316 317 317 318 318 317 316 315 314 314 314 313 313 312 311 310 309 308
259 260 261 262 264 267 269 271 273 275 276 277 279 282 286 289 290 290 289 288 288 287 286 287 287 288 289 289 290 290 290 291 291 292 292 293 294 295 296 296 296 296 296 296 296 297 298 299 300 301 302 302 303 303 304 305 306 307 308 310 311 313 314 315 315 316 317 317 318 318 319 318 317 316 316 315 315 315 314 313 312 311 310 309 308
262 263 265 267 268 270 271 273 274 275 277 279 282 286 289 290 291 290 289 288 287 287 287 288 289 289 290 290 290 291 291 292 292 293 294 295 296 296 296 296 295 295 295 295 296 298 299 300 300 301 301 302 303 303 304 305 306 307 309 311 312 314 315 315 316 317 317 318 319 319 319 318 317 316 316 316 316 315 314 313 312 311 310 310 310
265 267 268 269 269 270 272 273 275 278 280 284 287 289 290 291 290 290 288 287 287 287 288 289 289 290 290 291 291 292 292 293 294 295 296 296 296 296 295 295 294 294 294 295 297 298 299 300 300 300 301 302 303 303 304 305 306 308 310 311 313 314 315 316 317 317 318 319 320 320 320 319 317 317 317 317 316 315 314 312 311 311 311 311 310
266 267 267 268 270 272 274 277 280 283 285 287 289 289 289 289 288 287 286 286 287 288 289 289 290 291 291 292 292 293 294 295 295 296 296 296 296 295 294 293 293 294 295 296 297 298 299 299 299 300 300 301 302 303 304 305 307 309 311 312 313 315 316 316 317 318 318 320 321 321 320 319 318 318 318 317 316 315 313 312 311 311 311 311 310
266 266 268 270 273 276 280 282 284 286 287 287 287 287 287 286 286 285 286 286 288 289 290 290 291 292 292 293 294 295 295 296 296 296 296 295 294 294 293 293 293 294 295 296 297 298 299 299 299 299 300 301 302 303 304 305 307 309 311 312 314 315 316 317 317 318 319 320 321 321 320 319 319 318 318 317 316 314 313 312 312 312 311 311 310
268 270 273 277 280 282 283 284 285 285 285 285 285 285 285 285 285 286 287 288 289 290 291 291 292 292 293 294 295 295 296 296 296 295 295 294 293 292 292 293 294 295 295 297 298 298 299 299 299 299 300 301 302 303 304 306 308 309 311 312 314 315 316 317 318 318 319 321 322 322 320 319 319 319 318 317 315 314 313 313 313 312 312 311 310
273 276 279 282 283 283 284 284 285 285 285 285 285 285 285 285 286 287 288 289 290 291 292 292 293 294 294 294 295 295 295 295 294 294 293 293 292 292 293 293 294 295 295 297 298 299 299 299 299 299 300 301 302 303 304 306 308 309 311 312 314 315 316 317 318 319 320 321 322 322 320 320 319 319 318 316 315 314 313 313 313 313 312 312 311
278 280 282 282 283 284 285 285 285 285 284 284 285 285 286 286 287 288 289 290 291 292 293 293 294 294 294 294 294 294 293 293 293 293 292 292 292 292 292 293 294 294 295 297 298 298 299 299 299 299 300 301 302 303 305 306 307 309 310 312 314 315 316 317 318 319 320 322 322 322 320 320 319 318 317 316 315 314 314 314 314 313 313 312 311
281 281 282 283 283 284 284 283 283 283 283 283 284 285 286 287 288 290 291 292 293 293 293 294 294 293 293 293 293 293 293 293 292 292 292 291 291 291 292 293 293 294 295 297 298 298 298 299 299 300 301 302 303 303 304 306 307 308 310 312 314 315 316 317 318 319 321 322 322 321 320 319 318 318 316 315 314 314 314 314 314 314 313 312 312
281 281 281 281 281 281 281 281 281 282 282 283 284 285 286 288 290 291 292 293 294 295 295 295 294 294 293 293 292 292 292 292 292 291 291 290 290 291 292 292 293 294 295 297 298 298 299 299 300 301 302 302 303 303 304 305 307 308 310 312 314 315 316 317 318 319 321 322 322 320 319 318 318 317 316 315 314 314 314 314 314 314 313 313 312
274 275 275 276 277 278 279 280 280 280 281 282 284 285 287 290 291 293 295 296 297 297 297 297 296 294 293 293 292 292 291 291 291 290 290 289 290 291 291 292 293 294 296 298 298 299 299 299 300 301 302 302 303 303 304 305 307 308 310 312 314 315 316 317 318 319 320 321 321 319 318 317 317 316 315 314 314 313 314 314 314 314 313 313 313
269 271 273 276 278 278 278 278 277 278 280 282 285 287 290 293 295 297 298 299 300 299 299 297 296 294 293 292 291 291 290 290 290 289 289 289 289 290 291 293 294 295 297 298 299 299 299 300 300 301 302 302 303 303 304 305 307 309 310 312 313 314 315 316 317 319 320 320 319 317 316 316 315 315 314 314 313 313 313 314 314 313 313 314 314
270 273 275 276 276 275 274 274 276 279 282 285 288 291 294 296 298 299 300 300 300 299 298 296 295 293 291 290 290 290 289 289 289 288 288 288 289 291 292 293 295 296 298 298 298 299 299 300 301 302 302 302 303 303 304 305 307 309 310 312 313 314 315 316 317 318 319 318 317 316 315 314 314 314 313 313 313 313 313 313 313 313 314 314 315
271 272 272 272 271 271 273 276 279 283 286 289 291 294 296 297 299 299 300 300 299 298 297 295 293 291 290 290 289 289 289 289 288 288 288 288 290 291 293 294 295 296 297 298 298 298 299 301 301 302 302 303 303 303 305 306 308 309 310 311 312 313 314 315 316 317 317 316 315 313 313 313 313 312 312 312 312 312 312 312 312 313 314 315 316
270 270 269 269 271 274 277 280 283 286 288 291 293 295 297 298 299 299 299 298 297 296 294 292 291 290 289 289 290 289 289 288 288 288 288 289 290 291 292 293 295 296 296 297 297 299 300 301 302 302 302 303 303 304 305 307 308 309 310 311 311 312 313 314 314 315 314 314 312 311 311 311 311 311 311 311 311 311 312 312 312 312 313 315 316
267 267 269 271 275 278 281 283 286 288 291 293 294 296 297 298 298 298 298 297 295 294 292 290 289 289 289 289 290 290 289 289 288 288 288 289 290 291 291 292 294 295 296 297 298 299 301 302 302 302 302 303 304 305 306 307 308 308 309 310 310 311 311 312 312 312 312 310 309 308 308 309 309 309 309 310 309 310 310 311 311 311 312 314 316
266 268 271 274 277 280 283 285 287 290 292 293 295 296 297 297 297 297 296 295 293 291 290 289 288 288 288 289 289 289 289 288 288 288 289 289 289 290 290 291 293 295 297 298 299 300 301 301 302 302 302 303 304 305 306 307 307 308 308 309 309 309 309 309 309 309 308 307 306 305 306 306 307 307 307 308 308 308 309 309 310 309 310 313 315
268 271 274 277 279 281 284 287 289 291 293 294 295 296 296 297 297 296 295 293 291 290 288 288 287 288 288 288 288 288 288 289 289 289 289 289 289 289 290 292 294 296 298 299 300 301 301 301 302 302 302 303 304 305 306 306 307 307 307 307 307 307 307 307 306 305 304 303 302 302 303 304 304 304 305 305 306 306 306 307 308 308 309 311 314
271 274 276 279 281 284 286 288 290 292 293 295 295 296 296 296 295 294 293 291 290 289 288 287 287 288 288 288 288 289 289 289 289 289 289 289 290 291 292 293 295 297 299 300 300 301 301 301 302 302 303 303 304 305 305 305 306 306 306 305 305 304 304 304 303 301 300 300 299 299 300 301 302 302 302 303 303 303 304 305 306 307 307 309 311
Height
5758 5756 5755 5754 5753 5752 5751 5750 5749 5748 5747 5746 5745 5744 5743 5741 5740 5739 5738 5738 5736 5735 5734 5733 5731 5730 5728 5727 5726 5724 5723 5723 5721 5720 5719 5719 5717 5716 5714 5713 5711 5710 5708 5706 5704 5702 5700 5697 5695 5693 5692 5690 5688 5686 5683 5681 5678 5676 5673 5669 5666 5662 5657 5654 5650 5646 5645 5644 5640 5636 5632 5627 5624 5621 5618 5614 5610 5607 5603 5598 5593 5589 5585 5580 5577
5752 5751 5750 5749 5748 5747 5746 5745 5744 5743 5741 5740 5739 5738 5737 5735 5734 5733 5732 5732 5731 5729 5728 5727 5725 5724 5722 5721 5720 5718 5717 5717 5716 5715 5714 5713 5711 5710 5708 5707 5706 5704 5702 5700 5698 5696 5694 5691 5689 5687 5686 5684 5682 5679 5677 5674 5672 5669 5666 5662 5658 5654 5650 5646 5642 5638 5636 5634 5631 5627 5623 5618 5614 5611 5609 5606 5601 5598 5595 5590 5585 5581 5575 5571 5567
5746 5745 5744 5743 5742 5741 5740 5739 5738 5737 5736 5734 5733 5732 5730 5729 5728 5728 5727 5725 5725 5723 5722 5720 5719 5718 5716 5715 5714 5712 5712 5711 5710 5709 5708 5707 5705 5704 5703 5701 5700 5698 5696 5694 5692 5689 5688 5685 5683 5681 5679 5677 5675 5672 5670 5667 5665 5662 5659 5655 5651 5647 5643 5638 5634 5631 5628 5625 5622 5618 5614 5611 5606 5602 5599 5596 5592 5589 5586 5582 5577 5573 5568 5563 5559
5740 5739 5738 5737 5736 5735 5734 5733 5732 5731 5730 5728 5727 5725 5724 5723 5722 5721 5721 5720 5718 5717 5715 5714 5713 5711 5710 5709 5708 5707 5706 5705 5704 5703 5702 5701 5700 5698 5697 5695 5694 5692 5690 5688 5685 5683 5681 5679 5676 5674 5672 5670 5668 5665 5663 5660 5658 5655 5651 5648 5643 5639 5635 5631 5627 5624 5621 5617 5613 5609 5606 5603 5600 5595 5591 5587 5583 5580 5577 5573 5569 5565 5561 5556 5552
5734 5733 5731 5730 5730 5729 5728 5727 5726 5725 5723 5722 5720 5719 5718 5717 5716 5715 5714 5713 5712 5711 5710 5709 5707 5706 5704 5703 5702 5701 5700 5699 5698 5697 5696 5695 5694 5693 5691 5690 5688 5686 5684 5682 5679 5677 5675 5672 5669 5666 5664 5662 5660 5658 5656 5653 5650 5647 5644 5640 5636 5631 5627 5624 5619 5615 5612 5609 5605 5601 5597 5595 5592 5588 5583 5578 5575 5571 5568 5565 5561 5558 5553 5549 5544
5727 5726 5724 5723 5722 5722 5722 5721 5720 5718 5717 5716 5715 5714 5713 5712 5711 5710 5709 5707 5706 5705 5704 5703 5702 5700 5699 5698 5697 5696 5695 5693 5692 5691 5690 5689 5688 5686 5685 5683 5681 5680 5678 5675 5673 5671 5668 5665 5662 5660 5658 5656 5654 5651 5648 5646 5643 5640 5636 5632 5628 5623 5619 5616 5612 5608 5604 5600 5597 5594 5590 5587 5585 5581 5575 5569 5566 5563 5558 5556 5554 5550 5546 5543 5538
5721 5720 5718 5717 5715 5715 5714 5714 5713 5712 5711 5711 5709 5708 5707 5706 5705 5704 5703 5702 5701 5700 5698 5697 5696 5695 5694 5693 5692 5690 5689 5688 5686 5685 5684 5683 5681 5680 5678 5677 5675 5673 5671 5669 5666 5664 5662 5659 5657 5655 5653 5650 5647 5644 5641 5638 5635 5632 5628 5624 5620 5615 5612 5608 5604 5600 5596 5593 5590 5587 5583 5579 5577 5572 5566 5561 5558 5554 5549 5547 5546 5542 5537 5534 5531
5714 5713 5712 5711 5709 5708 5707 5707 5707 5706 5705 5705 5704 5702 5701 5700 5699 5698 5697 5696 5695 5694 5693 5692 5690 5689 5688 5687 5686 5684 5683 5682 5681 5679 5678 5676 5675 5673 5672 5670 5668 5666 5664 5662 5660 5658 5655 5652 5651 5649 5646 5643 5640 5637 5634 5631 5627 5623 5619 5616 5612 5608 5605 5601 5596 5593 5589 5586 5583 5578 5574 5572 5568 5563 5557 5552 5548 5545 5540 5538 5537 5534 5529 5525 5523
5707 5706 5705 5705 5703 5702 5701 5700 5700 5700 5699 5698 5697 5696 5696 5694 5693 5692 5691 5690 5689 5688 5687 5686 5684 5683 5682 5681 5680 5679 5677 5676 5675 5674 5672 5671 5669 5667 5665 5664 5662 5660 5658 5655 5653 5651 5649 5647 5645 5642 5639 5636 5633 5630 5627 5623 5619 5616 5612 5608 5605 5601 5596 5592 5588 5584 5581 5579 5575 5570 5566 5564 5560 5553 5548 5544 5539 5536 5533 5529 5527 5525 5520 5517 5515
5700 5699 5698 5697 5696 5696 5695 5694 5693 5693 5692 5692 5691 5690 5689 5688 5687 5686 5685 5684 5683 5682 5680 5679 5678 5678 5677 5675 5674 5672 5671 5669 5668 5667 5666 5665 5663 5661 5659 5657 5655 5653 5651 5648 5646 5644 5642 5641 5638 5634 5631 5629 5626 5623 5619 5615 5611 5608 5604 5600 5596 5592 5588 5583 5579 5575 5572 5570 5567 5562 5558 5556 5551 5544 5539 5536 5531 5527 5524 5520 5516 5514 5510 5507 5506
5692 5692 5691 5690 5689 5689 5688 5688 5687 5686 5686 5685 5684 5684 5683 5682 5681 5680 5679 5678 5677 5676 5674 5673 5672 5671 5670 5669 5668 5666 5665 5663 5662 5661 5659 5658 5657 5655 5653 5650 5648 5646 5644 5642 5639 5637 5636 5634 5631 5627 5624 5622 5619 5615 5611 5607 5603 5599 5594 5591 5588 5584 5580 5576 5572 5567 5562 5560 5558 5554 5549 5546 5542 5536 5530 5527 5523 5518 5514 5510 5506 5503 5499 5494 5493
5685 5684 5684 5683 5682 5682 5681 5681 5680 5680 5679 5678 5678 5677 5677 5676 5675 5674 5673 5672 5671 5670 5669 5668 5666 5665 5664 5663 5661 5660 5658 5657 5656 5654 5653 5652 5650 5648 5646 5643 5641 5639 5637 5635 5632 5631 5629 5626 5623 5619 5617 5614 5611 5607 5602 5597 5593 5589 5586 5583 5580 5575 5571 5567 5563 5558 5553 5551 5549 5546 5540 5535 5533 5530 5522 5516 5513 5509 5504 5500 5496 5492 5487 5483 5480
5677 5676 5676 5676 5675 5675 5674 5674 5674 5673 5672 5672 5672 5671 5671 5670 5669 5667 5666 5665 5664 5664 5663 5661 5660 5659 5658 5656 5655 5654 5652 5651 5650 5648 5647 5646 5644 5641 5639 5636 5634 5632 5630 5628 5626 5624 5621 5618 5614 5612 5609 5606 5602 5597 5592 5587 5583 5580 5577 5575 5571 5567 5562 5557 5553 5548 5544 5541 5539 5538 5533 5526 5524 5523 5514 5505 5503 5499 5494 5490 5485 5479 5475 5472 5470
5670 5670 5669 5669 5668 5668 5668 5667 5667 5666 5666 5666 5665 5665 5664 5663 5662 5661 5660 5659 5658 5657 5656 5655 5653 5652 5651 5650 5648 5647 5646 5645 5644 5642 5640 5638 5636 5634 5632 5630 5628 5625 5623 5621 5618 5616 5613 5609 5606 5603 5600 5596 5592 5586 5582 5578 5575 5572 5569 5566 5562 5559 5554 5549 5543 5538 5535 5532 5529 5529 5527 5519 5514 5512 5506 5497 5492 5488 5482 5478 5474 5468 5463 5461 5459
5664 5663 5663 5662 5662 5661 5660 5660 5660 5659 5659 5659 5659 5658 5657 5656 5655 5654 5653 5652 5651 5650 5649 5648 5647 5645 5644 5643 5641 5640 5639 5638 5637 5635 5633 5631 5629 5627 5625 5623 5621 5618 5616 5613 5610 5607 5604 5601 5598 5595 5591 5586 5581 5577 5573 5570 5567 5564 5561 5558 5554 5550 5546 5540 5533 5529 5527 5524 5521 5519 5517 5512 5505 5502 5497 5489 5482 5477 5471 5467 5464 5457 5451 5449 5449
5657 5657 5656 5656 5655 5654 5653 5653 5653 5652 5652 5652 5652 5651 5650 5649 5648 5647 5647 5646 5644 5643 5642 5641 5639 5638 5637 5636 5634 5633 5631 5630 5630 5628 5626 5624 5623 5620 5618 5615 5613 5610 5607 5604 5602 5599 5596 5592 5589 5585 5581 5577 5572 5568 5564 5561 5558 5556 5554 5550 5546 5542 5538 5530 5524 5522 5520 5517 5514 5511 5507 5503 5497 5491 5486 5479 5472 5467 5460 5457 5455 5447 5439 5437 5438
5650 5650 5649 5648 5648 5647 5646 5646 5646 5645 5645 5645 5644 5644 5643 5642 5641 5640 5639 5638 5637 5636 5635 5633 5632 5631 5630 5628 5627 5626 5624 5622 5622 5621 5619 5617 5615 5613 5610 5607 5604 5601 5599 5596 5594 5591 5587 5583 5579 5576 5572 5568 5564 5559 5554 5551 5550 5548 5544 5542 5538 5534 5529 5522 5517 5515 5512 5509 5506 5502 5498 5493 5487 5482 5477 5471 5464 5456 5448 5446 5446 5439 5430 5426 5426
5643 5643 5642 5642 5641 5641 5640 5639 5639 5639 5638 5638 5637 5636 5636 5635 5634 5633 5632 5631 5630 5629 5627 5626 5625 5624 5622 5621 5619 5618 5616 5615 5614 5612 5610 5609 5607 5604 5601 5599 5596 5593 5591 5588 5585 5582 5578 5574 5570 5566 5563 5559 5554 5550 5546 5543 5541 5538 5534 5532 5531 5527 5520 5515 5512 5509 5505 5500 5497 5492 5487 5483 5478 5473 5469 5463 5457 5448 5438 5432 5431 5425 5418 5415 5413
5637 5636 5635 5635 5634 5634 5633 5632 5632 5632 5631 5630 5629 5629 5628 5627 5626 5625 5624 5623 5622 5621 5620 5619 5617 5616 5615 5613 5612 5610 5608 5607 5606 5604 5602 5600 5598 5595 5593 5591 5588 5585 5583 5579 5576 5572 5568 5565 5561 5557 5553 5550 5546 5542 5538 5534 5532 5529 5525 5523 5522 5518 5512 5508 5505 5501 5496 5492 5487 5482 5479 5475 5470 5466 5462 5457 5451 5443 5433 5425 5418 5411 5403 5400 5397
5629 5629 5628 5628 5627 5626 5626 5625 5625 5624 5623 5623 5622 5621 5620 5619 5618 5618 5616 5615 5615 5613 5612 5611 5610 5609 5607 5606 5604 5602 5600 5599 5597 5596 5594 5592 5590 5587 5584 5582 5579 5576 5573 5570 5567 5563 5559 5556 5552 5548 5543 5541 5538 5533 5529 5526 5523 5520 5516 5513 5511 5509 5504 5499 5494 5489 5486 5482 5478 5475 5472 5468 5464 5459 5455 5450 5444 5437 5429 5421 5413 5404 5393 5386 5381
5622 5621 5620 5620 5619 5619 5618 5618 5617 5616 5616 5615 5614 5613 5613 5612 5611 5610 5609 5608 5607 5606 5605 5603 5602 5601 5600 5598 5596 5594 5592 5590 5589 5587 5585 5583 5581 5578 5575 5573 5570 5567 5565 5561 5558 5554 5550 5547 5543 5539 5535 5532 5529 5525 5521 5517 5514 5510 5507 5503 5500 5496 5492 5488 5484 5480 5477 5474 5471 5468 5465 5461 5457 5453 5448 5443 5437 5430 5423 5415 5407 5399 5389 5379 5371
5614 5614 5613 5613 5612 5611 5611 5610 5609 5609 5608 5607 5606 5605 5605 5604 5603 5602 5601 5600 5599 5598 5596 5595 5594 5592 5591 5590 5588 5586 5584 5582 5580 5578 5575 5573 5571 5568 5566 5564 5561 5558 5555 5552 5548 5545 5542 5539 5536 5532 5528 5524 5520 5516 5512 5508 5505 5501 5497 5492 5488 5485 5481 5478 5476 5472 5470 5467 5463 5460 5457 5452 5447 5444 5440 5435 5428 5421 5414 5407 5398 5390 5382 5373 5364
5607 5606 5606 5605 5604 5603 5602 5602 5601 5600 5599 5599 5598 5597 5596 5595 5595 5594 5593 5591 5590 5589 5588 5586 5585 5584 5582 5581 5579 5577 5575 5573 5571 5569 5566 5564 5562 5559 5557 5554 5551 5549 5546 5543 5540 5537 5534 5531 5528 5524 5521 5516 5512 5508 5504 5500 5496 5491 5487 5483 5479 5476 5472 5469 5467 5464 5461 5457 5453 5449 5447 5442 5437 5432 5428 5424 5418 5411 5404 5397 5389 5380 5372 5365 5358
5599 5598 5597 5597 5596 5595 5594 5593 5592 5591 5591 5590 5589 5589 5588 5587 5586 5585 5584 5583 5581 5580 5579 5577 5576 5575 5573 5571 5570 5568 5566 5564 5562 5560 5557 5555 5553 5550 5547 5545 5542 5540 5538 5536 5533 5529 5526 5523 5519 5516 5512 5508 5504 5500 5496 5492 5487 5482 5479 5475 5472 5468 5465 5461 5457 5454 5450 5447 5442 5438 5435 5431 5425 5420 5415 5410 5405 5399 5392 5385 5378 5370 5362 5355 5349
5590 5589 5589 5588 5587 5586 5585 5584 5583 5583 5582 5581 5580 5580 5579 5578 5577 5576 5575 5574 5573 5571 5570 5569 5567 5566 5564 5562 5561 5559 5557 5555 5553 5551 5548 5546 5544 5541 5539 5537 5534 5532 5530 5527 5524 5521 5518 5514 5510 5507 5504 5500 5496 5492 5488 5483 5479 5475 5472 5468 5465 5461 5457 5452 5448 5444 5440 5436 5432 5427 5423 5418 5413 5408 5401 5395 5390 5384 5377 5371 5365 5358 5351 5344 5339
5581 5580 5580 5579 5578 5577 5576 5575 5574 5574 5573 5572 5571 5571 5570 5569 5569 5568 5567 5565 5564 5563 5561 5560 5559 5557 5555 5554 5552 5550 5549 5547 5544 5542 5539 5537 5535 5532 5530 5528 5525 5523 5520 5518 5515 5512 5509 5505 5502 5498 5495 5491 5488 5484 5480 5476 5472 5468 5465 5461 5457 5453 5448 5444 5439 5434 5430 5425 5420 5416 5411 5406 5400 5395 5389 5382 5375 5369 5362 5357 5351 5346 5340 5333 5328
5572 5571 5570 5570 5569 5568 5567 5566 5565 5565 5564 5563 5562 5561 5561 5561 5560 5559 5558 5556 5555 5554 5552 5551 5550 5549 5547 5545 5544 5542 5540 5537 5535 5533 5530 5528 5525 5523 5520 5518 5515 5513 5511 5509 5506 5503 5500 5496 5493 5489 5486 5483 5479 5476 5472 5469 5465 5461 5457 5453 5448 5444 5439 5434 5429 5424 5418 5413 5408 5404 5399 5393 5387 5382 5376 5370 5362 5354 5348 5342 5337 5332 5327 5321 5316
5563 5562 5561 5561 5560 5559 5558 5557 5556 5556 5555 5554 5554 5553 5552 5552 5551 5550 5549 5548 5546 5545 5544 5543 5542 5540 5538 5536 5534 5532 5530 5527 5525 5523 5520 5518 5516 5514 5511 5509 5507 5504 5502 5500 5498 5495 5491 5488 5484 5481 5477 5474 5471 5468 5464 5461 5457 5453 5449 5445 5440 5435 5430 5425 5420 5415 5410 5404 5399 5394 5388 5383 5377 5370 5363 5357 5350 5342 5336 5330 5324 5318 5313 5307 5303
5553 5552 5552 5551 5550 5549 5549 5548 5547 5547 5546 5545 5545 5544 5544 5543 5542 5542 5541 5540 5538 5537 5535 5534 5533 5531 5529 5527 5525 5523 5520 5518 5516 5514 5511 5509 5507 5505 5503 5501 5498 5496 5493 5491 5488 5485 5482 5479 5476 5472 5469 5466 5463 5460 5456 5452 5448 5444 5440 5436 5431 5427 5422 5417 5412 5408 5403 5396 5390 5384 5377 5371 5365 5358 5350 5345 5338 5331 5325 5319 5312 5306 5300 5295 5290
5543 5542 5542 5541 5540 5540 5539 5539 5538 5538 5537 5537 5536 5536 5535 5535 5534 5534 5532 5531 5530 5529 5527 5525 5524 5522 5520 5518 5516 5514 5512 5509 5507 5505 5503 5501 5498 5496 5494 5492 5489 5487 5484 5482 5479 5476 5473 5470 5467 5465 5462 5458 5455 5451 5448 5444 5440 5436 5432 5428 5423 5419 5414 5409 5404 5399 5393 5387 5380 5373 5366 5359 5352 5345 5338 5332 5326 5320 5314 5308 5301 5294 5288 5283 5278
5534 5533 5533 5532 5532 5531 5530 5530 5530 5529 5529 5529 5528 5528 5528 5527 5527 5526 5524 5523 5522 5520 5518 5517 5515 5513 5511 5509 5507 5505 5503 5501 5499 5496 5494 5492 5489 5487 5485 5483 5480 5477 5474 5472 5470 5467 5465 5462 5459 5456 5453 5450 5447 5443 5440 5436 5432 5429 5425 5421 5416 5411 5406 5401 5395 5389 5382 5376 5369 5362 5355 5347 5340 5334 5327 5321 5315 5308 5302 5296 5290 5284 5278 5272 5267
5525 5524 5524 5523 5523 5522 5522 5522 5522 5521 5521 5521 5521 5521 5520 5520 5519 5518 5516 5515 5513 5511 5510 5508 5506 5504 5502 5500 5498 5496 5494 5492 5489 5487 5485 5483 5480 5478 5476 5473 5471 5468 5465 5463 5461 5459 5456 5454 5451 5448 5445 5442 5439 5436 5432 5429 5425 5421 5417 5413 5408 5402 5397 5391 5386 5379 5372 5365 5358 5351 5344 5337 5330 5323 5316 5310 5304 5298 5291 5284 5278 5273 5268 5262 5257
5516 5516 5515 5515 5515 5514 5514 5514 5514 5514 5514 5514 5513 5513 5513 5512 5510 5509 5507 5506 5504 5502 5500 5498 5496 5495 5493 5491 5489 5487 5485 5483 5481 5478 5476 5474 5471 5469 5467 5464 5462 5460 5457 5455 5453 5450 5448 5445 5443 5440 5437 5434 5431 5428 5424 5421 5417 5413 5408 5404 5399 5394 5388 5382 5376 5370 5363 5356 5348 5341 5334 5327 5320 5314 5307 5300 5294 5287 5281 5275 5268 5263 5258 5254 5249
5508 5508 5508 5507 5507 5507 5507 5507 5507 5507 5506 5506 5506 5505 5505 5503 5502 5500 5498 5497 5495 5493 5491 5489 5487 5486 5484 5482 5480 5478 5476 5474 5472 5469 5467 5465 5463 5460 5458 5456 5454 5452 5450 5447 5445 5442 5440 5438 5435 5432 5429 5426 5423 5420 5416 5412 5408 5404 5399 5395 5389 5384 5379 5373 5366 5360 5354 5347 5339 5331 5324 5318 5311 5305 5299 5292 5285 5278 5272 5265 5259 5254 5249 5245 5241
5501 5501 5501 5500 5500 5500 5500 5499 5499 5499 5499 5498 5497 5497 5496 5494 5492 5491 5489 5487 5486 5484 5482 5480 5479 5477 5475 5473 5471 5469 5467 5465 5463 5460 5458 5456 5454 5452 5450 5449 5447 5445 5443 5440 5437 5434 5432 5430 5427 5424 5421 5418 5415 5411 5407 5403 5399 5394 5390 5385 5380 5375 5369 5363 5357 5351 5344 5337 5330 5323 5315 5309 5302 5296 5290 5283 5277 5270 5264 5257 5251 5246 5241 5237 5234
5494 5494 5493 5493 5493 5492 5492 5492 5491 5491 5491 5490 5489 5488 5487 5485 5484 5482 5480 5479 5477 5476 5474 5472 5471 5469 5467 5465 5463 5460 5458 5456 5454 5452 5450 5448 5446 5445 5443 5441 5439 5437 5435 5432 5429 5427 5424 5422 5419 5416 5413 5409 5406 5402 5398 5394 5390 5385 5380 5375 5370 5366 5360 5355 5348 5342 5335 5328 5321 5314 5307 5300 5294 5287 5281 5275 5268 5261 5255 5250 5244 5239 5235 5230 5227
5487 5486 5486 5486 5485 5485 5485 5484 5484 5484 5483 5482 5481 5480 5478 5477 5475 5474 5472 5471 5469 5468 5466 5464 5463 5461 5459 5456 5454 5452 5450 5448 5446 5444 5443 5441 5439 5437 5435 5433 5431 5429 5426 5424 5421 5418 5416 5413 5411 5408 5404 5401 5397 5393 5389 5385 5381 5376 5371 5366 5361 5356 5351 5345 5339 5332 5326 5319 5313 5306 5299 5292 5285 5279 5273 5267 5260 5254 5248 5243 5238 5233 5228 5224 5220
5479 5479 5479 5479 5478 5478 5477 5477 5476 5475 5475 5474 5473 5471 5470 5469 5467 5466 5464 5463 5461 5459 5458 5456 5455 5453 5451 5449 5447 5445 5443 5441 5439 5437 5435 5433 5431 5429 5427 5425 5423 5420 5418 5416 5413 5410 5407 5405 5402 5398 5395 5392 5388 5384 5380 5376 5372 5367 5362 5357 5352 5347 5341 5336 5330 5323 5316 5310 5304 5298 5291 5284 5277 5271 5264 5258 5253 5247 5241 5236 5231 5227 5222 5218 5213
5472 5472 5472 5471 5471 5470 5469 5468 5468 5467 5466 5465 5464 5463 5462 5460 5459 5458 5456 5455 5453 5451 5450 5448 5447 5445 5443 5442 5440 5438 5436 5434 5432 5430 5428 5425 5423 5421 5419 5417 5414 5412 5410 5407 5405 5402 5399 5396 5393 5390 5386 5383 5379 5375 5371 5367 5362 5358 5353 5348 5343 5337 5332 5326 5320 5314 5307 5301 5295 5289 5283 5276 5269 5263 5257 5251 5245 5240 5235 5230 5225 5221 5216 5212 5208
5465 5464 5464 5463 5463 5461 5461 5460 5459 5458 5458 5456 5455 5454 5453 5452 5451 5450 5448 5447 5446 5444 5443 5441 5440 5438 5436 5435 5433 5431 5429 5427 5424 5422 5420 5417 5415 5413 5411 5409 5406 5404 5401 5399 5396 5393 5390 5387 5384 5381 5377 5374 5370 5366 5362 5358 5353 5349 5344 5339 5334 5328 5323 5317 5311 5305 5298 5292 5286 5280 5274 5268 5262 5256 5249 5243 5238 5233 5229 5225 5220 5215 5211 5207 5203
5457 5456 5455 5455 5454 5453 5453 5452 5451 5450 5449 5448 5447 5446 5445 5444 5443 5442 5441 5440 5439 5437 5436 5434 5432 5431 5429 5427 5425 5423 5421 5419 5416 5414 5412 5410 5407 5405 5403 5401 5398 5396 5393 5390 5388 5385 5382 5379 5375 5372 5368 5364 5360 5356 5352 5348 5344 5339 5335 5330 5325 5319 5314 5308 5302 5296 5290 5284 5278 5272 5266 5260 5255 5249 5243 5237 5232 5227 5223 5219 5215 5210 5206 5201 5198
5448 5447 5447 5446 5445 5445 5445 5444 5443 5442 5441 5440 5439 5439 5438 5437 5436 5435 5434 5433 5432 5430 5428 5426 5424 5423 5421 5418 5417 5415 5412 5410 5408 5406 5404 5402 5399 5397 5395 5392 5390 5387 5385 5382 5379 5376 5373 5370 5366 5363 5359 5355 5351 5347 5343 5338 5334 5330 5325 5320 5315 5310 5305 5300 5294 5287 5282 5276 5270 5264 5258 5253 5248 5243 5237 5232 5226 5222 5218 5214 5210 5205 5201 5197 5193
5439 5439 5438 5438 5437 5437 5436 5436 5435 5434 5433 5433 5433 5432 5431 5430 5429 5428 5427 5426 5424 5422 5420 5418 5416 5414 5412 5409 5408 5406 5404 5402 5399 5397 5395 5393 5391 5389 5386 5384 5381 5379 5376 5373 5370 5367 5364 5360 5357 5353 5350 5346 5342 5337 5333 5329 5325 5320 5316 5311 5306 5301 5296 5291 5285 5279 5273 5268 5262 5256 5251 5246 5241 5236 5231 5226 5221 5217 5213 5209 5205 5201 5196 5192 5188
5431 5431 5431 5430 5430 5429 5428 5428 5428 5427 5427 5426 5426 5425 5424 5423 5421 5420 5419 5417 5415 5414 5412 5410 5408 5405 5403 5401 5399 5397 5395 5393 5390 5388 5386 5384 5382 5380 5378 5375 5372 5370 5367 5364 5361 5357 5354 5351 5347 5344 5340 5336 5332 5328 5324 5319 5315 5311 5306 5301 5296 5291 5287 5282 5276 5271 5265 5259 5253 5248 5243 5238 5234 5230 5225 5221 5216 5212 5208 5204 5200 5196 5192 5188 5184
5424 5424 5423 5423 5422 5422 5422 5422 5421 5421 5420 5419 5418 5417 5416 5414 5413 5411 5410 5408 5407 5405 5403 5401 5399 5397 5394 5392 5390 5388 5386 5384 5382 5379 5377 5375 5373 5371 5369 5366 5364 5361 5358 5355 5351 5348 5345 5341 5337 5334 5330 5326 5323 5319 5314 5310 5305 5301 5296 5292 5287 5282 5277 5272 5267 5262 5257 5251 5245 5240 5235 5231 5227 5223 5219 5215 5211 5207 5203 5199 5195 5192 5188 5184 5180
5416 5416 5416 5416 5416 5415 5415 5414 5414 5413 5412 5411 5410 5409 5407 5406 5404 5403 5401 5399 5398 5396 5394 5392 5390 5387 5385 5383 5381 5379 5377 5375 5373 5371 5368 5366 5364 5362 5359 5357 5354 5352 5348 5345 5342 5338 5335 5331 5327 5324 5320 5316 5312 5309 5304 5300 5295 5291 5286 5282 5277 5272 5268 5263 5258 5253 5248 5243 5237 5233 5228 5224 5221 5217 5213 5209 5206 5202 5198 5194 5191 5188 5184 5181 5176
5409 5409 5409 5409 5408 5408 5407 5406 5405 5405 5404 5403 5402 5400 5399 5397 5396 5394 5392 5390 5388 5386 5384 5382 5380 5378 5376 5374 5372 5370 5368 5366 5364 5362 5360 5357 5355 5353 5350 5348 5345 5342 5338 5335 5332 5328 5325 5321 5317 5313 5310 5306 5302 5298 5294 5290 5285 5281 5276 5271 5267 5263 5258 5253 5249 5244 5240 5235 5230 5225 5221 5218 5214 5210 5207 5203 5200 5197 5193 5190 5186 5183 5180 5177 5173
5401 5401 5401 5401 5400 5399 5399 5398 5397 5396 5395 5394 5393 5392 5390 5389 5387 5385 5383 5381 5379 5377 5375 5373 5370 5368 5367 5365 5363 5361 5359 5357 5355 5353 5351 5348 5346 5344 5341 5338 5335 5332 5328 5325 5321 5318 5315 5311 5307 5303 5299 5295 5291 5288 5283 5279 5275 5270 5266 5261 5257 5253 5248 5244 5239 5235 5231 5227 5222 5218 5214 5211 5208 5204 5201 5198 5195 5192 5189 5185 5182 5179 5176 5173 5170
5393 5393 5393 5392 5391 5391 5390 5390 5389 5388 5387 5386 5384 5383 5381 5380 5378 5376 5374 5372 5370 5368 5365 5363 5361 5359 5357 5355 5354 5352 5350 5348 5346 5344 5341 5339 5337 5334 5331 5328 5325 5321 5318 5314 5311 5307 5304 5301 5297 5293 5289 5285 5281 5277 5272 5268 5264 5259 5255 5251 5247 5242 5238 5234 5230 5226 5222 5218 5214 5210 5207 5204 5201 5198 5195 5192 5189 5187 5184 5181 5178 5175 5172 5170 5167
5385 5385 5384 5384 5383 5383 5382 5382 5381 5380 5378 5377 5375 5374 5372 5370 5368 5367 5364 5362 5360 5358 5356 5354 5352 5350 5348 5346 5345 5343 5341 5339 5336 5334 5332 5329 5326 5324 5321 5318 5314 5311 5308 5304 5300 5296 5293 5289 5286 5283 5278 5274 5270 5266 5261 5257 5252 5248 5244 5240 5236 5232 5228 5225 5221 5217 5214 5210 5207 5203 5200 5197 5195 5192 5190 5187 5184 5182 5179 5177 5174 5171 5169 5166 5164
5377 5377 5376 5376 5375 5375 5374 5373 5372 5371 5370 5368 5366 5365 5363 5361 5359 5357 5355 5353 5351 5349 5347 5345 5343 5341 5339 5337 5335 5333 5331 5329 5326 5324 5321 5319 5316 5313 5310 5307 5304 5301 5297 5293 5289 5286 5282 5278 5275 5271 5267 5263 5259 5254 5250 5245 5241 5236 5233 5229 5224 5221 5218 5215 5212 5208 5205 5202 5199 5195 5192 5190 5188 5186 5184 5181 5179 5176 5174 5172 5170 5167 5165 5163 5160